#timestamp,LO_Frequency,Hit,StdDev 
1609628415.7,286046998.4,N
1609628435.5,286046999.6,N
1609628455.4,286046996.9,Y
1609628475.2,286046995.0,P
1609628495.1,286046995.1,N
1609628496.0,286046995.1,N
1609628515.8,286046996.9,N
1609628535.6,286046997.8,N
1609628555.5,286046995.5,N
1609628575.3,286046995.2,N
1609628595.1,286046995.0,N
1609628615.9,286046996.8,N
1609628635.7,286046995.3,N
1609628655.6,286046995.5,N
1609628675.4,286046997.5,N
1609628695.2,286046995.4,Y
1609628715.1,286046998.6,P
1609628716.0,286046998.6,N
1609628735.8,286047000.8,N
1609628755.6,286046998.6,N
1609628775.5,286046998.1,N
1609628795.3,286046998.2,N
1609628815.2,286046999.2,N
1609628835.9,286046999.0,N
1609628855.7,286046997.1,N
1609628875.6,286046997.5,N
1609628895.4,286046996.9,N
1609628915.2,286046999.5,N
1609628935.1,286046999.2,N
1609628936.0,286046999.2,N
1609628955.8,286046999.2,N
1609628975.7,286046996.7,Y
1609628995.5,286046998.7,P
1609629015.3,286046998.6,P
1609629035.2,286046998.1,P
1609629055.0,286046999.4,N
1609629055.9,286046999.4,N
1609629075.8,286046999.0,N
1609629095.6,286046999.4,N
1609629115.5,286046998.3,Y
1609629135.3,286047000.1,P
1609629155.1,286047001.0,N
1609629175.9,286046998.6,N
1609629195.7,286046999.3,N
1609629215.5,286046995.2,Y
1609629235.4,286046995.7,P
1609629255.2,286046997.9,N
1609629275.1,286046996.9,N
1609629276.0,286046996.9,N
1609629295.8,286046997.0,N
1609629315.6,286046999.3,N
1609629335.5,286046999.5,N
1609629355.3,286046998.8,N
1609629375.2,286046996.7,N
1609629395.9,286046997.9,N
1609629415.7,286046997.9,N
1609629435.7,286046995.2,Y
1609629455.5,286046996.5,P
1609629475.4,286046999.3,N
1609629495.2,286046999.5,N
1609629515.0,286046996.5,N
1609629515.9,286046996.5,N
1609629535.8,286046997.2,N
1609629555.6,286046997.7,N
1609629575.5,286046996.6,Y
1609629595.3,286047000.5,P
1609629615.1,286047000.7,N
1609629635.9,286046998.4,N
1609629655.7,286046996.8,N
1609629675.5,286046997.8,N
1609629695.4,286046997.1,N
1609629715.2,286046995.2,Y
1609629735.1,286046994.9,P
1609629736.0,286046994.9,N
1609629755.8,286046997.3,N
1609629775.6,286046997.1,N
1609629795.5,286046998.8,N
1609629815.3,286046998.7,N
1609629835.1,286046999.2,N
1609629855.9,286046999.4,N
1609629875.7,286046996.5,N
1609629895.6,286046996.7,N
1609629915.4,286046999.1,N
1609629935.2,286046998.7,N
1609629955.1,286046998.2,N
1609629956.0,286046998.2,N
1609629975.8,286046999.2,N
1609629995.7,286047000.4,N
1609630015.5,286047000.3,N
1609630035.3,286047000.8,N
1609630055.2,286047000.8,N
1609630075.0,286047000.0,N
1609630075.9,286047000.0,N
1609630095.8,286047002.5,N
1609630115.6,286047002.2,N
1609630135.4,286047003.4,N
1609630155.3,286047000.0,N
1609630175.1,286047000.0,N
1609630195.8,286047000.2,N
1609630215.7,286047002.8,N
1609630235.5,286047002.3,N
1609630255.4,286047000.8,N
1609630275.2,286047002.3,N
1609630295.0,286047000.9,N
1609630295.9,286047000.9,N
1609630315.8,286047002.5,N
1609630335.6,286047001.9,N
1609630355.4,286047002.4,N
1609630375.3,286046999.7,N
1609630395.1,286046999.9,N
1609630415.9,286047002.7,N
1609630435.7,286047002.6,N
1609630455.5,286047003.3,N
1609630475.4,286047011.9,Y
1609630495.2,286046998.8,P
1609630515.0,286046999.1,N
1609630515.9,286046999.1,N
1609630535.8,286046996.9,Y
1609630555.6,286046998.3,P
1609630575.5,286047001.2,N
1609630595.3,286047001.2,N
1609630615.1,286047002.4,N
1609630635.9,286047000.2,N
1609630655.7,286047001.9,N
1609630675.5,286047002.0,N
1609630695.4,286047004.0,Y
1609630715.2,286047003.1,P
1609630735.1,286047003.5,P
1609630736.0,286047003.5,N
1609630755.8,286047003.2,N
1609630775.6,286047004.1,Y
1609630795.5,286047002.7,P
1609630815.3,286047000.4,P
1609630835.2,286047000.8,N
1609630855.9,286047002.5,N
1609630875.7,286047000.3,N
1609630895.6,286047001.9,N
1609630915.4,286047001.5,N
1609630935.2,286047001.9,N
1609630955.1,286047000.2,N
1609630956.0,286047000.2,N
1609630975.8,286047000.6,N
1609630995.7,286047001.8,N
1609631015.5,286047000.8,N
1609631035.3,286047001.2,N
1609631055.2,286046999.7,N
1609631075.0,286047002.5,N
1609631075.9,286047002.5,N
1609631095.7,286047004.4,Y
1609631115.6,286046999.9,P
1609631135.4,286047002.2,N
1609631155.3,286047000.1,N
1609631175.1,286047000.3,N
1609631176.0,286047000.3,N
1609631195.8,286047002.7,Y
1609631215.7,286047001.4,P
1609631235.5,286047001.3,P
1609631255.4,286047001.7,P
1609631275.2,286047001.9,Y
1609631295.0,286047002.2,P
1609631295.9,286047002.2,P
1609631315.8,286047000.4,N
1609631335.6,286047000.2,N
1609631355.4,286047002.5,N
1609631375.3,286047000.1,N
1609631395.1,286047000.6,N
1609631415.9,286047000.7,N
1609631435.7,286047000.7,N
1609631455.5,286047000.5,N
1609631475.4,286046998.3,N
1609631495.2,286047000.9,N
1609631515.0,286046998.3,N
1609631516.0,286046998.3,N
1609631535.8,286046998.3,N
1609631555.6,286046999.2,N
1609631575.5,286046999.6,N
1609631595.3,286046998.8,N
1609631615.1,286046998.1,N
1609631635.9,286046998.3,N
1609631655.7,286046998.7,N
1609631675.6,286046998.7,N
1609631695.4,286046998.3,N
1609631715.2,286047001.1,N
1609631735.1,286046996.9,N
1609631736.0,286046996.9,N
1609631755.8,286046996.7,N
1609631775.6,286046997.6,N
1609631795.5,286046999.2,N
1609631815.3,286046999.2,N
1609631835.2,286046999.4,N
1609631855.0,286046998.8,N
1609631855.9,286046998.8,N
1609631875.7,286046996.9,N
1609631895.6,286046997.0,N
1609631915.4,286046995.7,Y
1609631935.3,286046997.6,P
1609631955.1,286046996.5,P
1609631975.9,286046996.7,P
1609631995.7,286046996.6,Y
